Погода в Октябрьском

Россия / Пермский край     56°30′54″N   57°12′17″E
темп.,
°C
ветер,
м/с
пор.,
м/с
влажн.,
%
обл.,
%
осадки,
мм/ч
давл.,
гПа
погр.,
м
9 марта, вт
вт923:00−9юз6149495 0.3 1001717
02:00−10юз41195100 0.2 1002398
05:00−12юз3798100 0.3 1002172
08:00−14зюз2299100 0.0 100223
11:00−9з2494100 0.1 1005343
14:00−6з468798 0.1 1008815
17:00−7зюз358799 0.1 1009724
20:00−12зюз129898 0.1 101021
10 марта, ср
ср1023:00−15в119999 0.1 101020
02:00−14всв2397100 0.0 100952
05:00−13св3896100 0.0 1007232
08:00−13ссв51193100 0.2 1006349
11:00−13ссв61293100 0.5 1004404
14:00−12с71393100 0.6 1003592
17:00−12с71393100 1.6 1004781
20:00−14с61293100 0.8 1007738
11 марта, чт
чт1123:00−18с61293100 1.1 1009554
02:00−21с51096100 0.1 1011409
05:00−25ссз3997100 0.1 1013238
08:00−29ссз259981 0.0 1016109
11:00−21сз359451 0.0 1016263
14:00−16з479159 0.0 1016607
17:00−16з589379 0.2 1016627
20:00−16зюз4996100 0.4 1017457
12 марта, пт
пт1223:00−16зюз41095100 0.9 1018425
02:00−12зсз41095100 0.5 1018627
05:00−15зсз41097100 0.7 1019400
08:00−19з41099100 0.1 1022286
11:00−15з5995100 0.1 1023451
14:00−11з61188100 0.0 1024695
17:00−9з61186100 0.1 1024876
20:00−11з51292100 0.1 1025699
13 марта, сб
сб1323:00−12з51294100 0.1 1027636
02:00−13зюз51195100 0.2 1028488
05:00−14зюз51096100 0.3 1030408
08:00−16зюз4999100 0.1 1032303
11:00−13зюз4895100 0.1 1033339
14:00−10зюз4890100 0.0 1033422
17:00−10зюз4791100 0.0 1033413
20:00−13зюз3897100 0.0 1033256